Regional Weather Roundup
Issued by NWS

Home | Current Version | Previous Version | Text Only | Print | Product List | Glossary Off
Versions: 1 2 3 4 5 6 7 8 9 10 11 12 13 14 15 16 17 18 19 20 21 22 23 24 25 26 27 28 29 30 31 32 33 34 35 36 37 38 39 40 41 42 43 44 45 46 47 48 49 50

065
ASUS43 KLOT 160703
RWRIL

ILLINOIS REGIONAL WEATHER ROUNDUP
NATIONAL WEATHER SERVICE CHICAGO/ROMEOVILLE IL
100 AM CST SAT DEC 16 2017

NOTE: "FAIR" INDICATES FEW OR NO CLOUDS BELOW 12,000 FEET WITH NO
SIGNIFICANT WEATHER AND/OR OBSTRUCTIONS TO VISIBILITY.

* THESE STATIONS ARE NOT UNDER NWS QUALITY CONTROL. THEY ALSO MAY NOT
  REPORT WEATHER SUCH AS PRECIPITATION OR FOG.

ILZ001-002-007-009-015-016-024-160800-
NORTHWEST ILLINOIS

CITY           SKY/WX    TMP DP  RH WIND       PRES   REMARKS
MOLINE         CLOUDY    36  23  59 SW8G16    29.82F WCI  30
STERLING*      CLOUDY    35  22  58 VRB5      29.84F WCI  31
$$

ILZ003-004-008-010-011-017-018-160800-
NORTH CENTRAL ILLINOIS

CITY           SKY/WX    TMP DP  RH WIND       PRES   REMARKS
ROCKFORD       CLOUDY    35  22  58 SW12      29.84F WCI  27
FREEPORT*      CLOUDY    33  24  68 S12       29.82F WCI  25
DE KALB*       CLOUDY    34  23  63 SW15      29.85F WCI  25
$$

ILZ005-006-012>014-019>023-160800-
NORTHEAST ILLINOIS

CITY           SKY/WX    TMP DP  RH WIND       PRES   REMARKS
CHICAGO-OHARE  CLOUDY    38  21  50 SW13      29.86F WCI  30
CHICAGO-MIDWAY CLOUDY    38  21  50 SW14      29.89S WCI  30
AURORA         CLOUDY    36  22  56 S14G21    29.86F WCI  27
LANSING*       CLOUDY    36  23  60 SW15      29.91F WCI  26
JOLIET*        CLOUDY    38  23  54 SW10G16   29.90F WCI  31
WAUKEGAN       CLOUDY    36  23  59 SW12G20   29.83S WCI  28
DUPAGE AIRPORT CLOUDY    35  22  58 SW16      29.85F WCI  25
WHEELING       CLOUDY    38  22  52 SW12G22   29.87S WCI  30
NORTHERLY ISL    N/A     38  21  51 SW3         N/A
$$

LMZ740>746-160800-
SOUTHERN LAKE MICHIGAN

STATION/POSITION SKY/WX   TEMP    WIND        PRES    VSBY  WAVE
                          AIR SEA DIR/SP/G                  HT/PER
                          (F)     (DEG/KT/KT) (MB)    (MI)  (FT/S)
HARRISON CRIB              40     230/ 22/ 26   N/A
BURNHAM HARBOR             38     180/  5/ 12   N/A
CALUMET HARBOR             37     210/ 11/ 18 1011.7S
BURNS HARBOR               38     210/ 18/ 21 1012.9S
MICHIGAN CITY              37     210/ 24/ 28   N/A
$$

ILZ025>027-034>036-040-047-049-050-058-095>099-160800-
WEST-CENTRAL ILLINOIS

CITY           SKY/WX    TMP DP  RH WIND       PRES   REMARKS
QUINCY         CLOUDY    35  25  66 S16       29.91F WCI  25
GALESBURG*     CLOUDY    36  26  68 S16G22    29.86F WCI  26
MACOMB*        CLOUDY    34  25  68 S12       29.91F WCI  26
PITTSFIELD*    CLOUDY    37  26  65 SW12      29.96F WCI  29
$$

ILZ028>032-037-038-041>044-048-051>054-059>061-160800-
CENTRAL ILLINOIS

CITY           SKY/WX    TMP DP  RH WIND       PRES   REMARKS
BLOOMINGTON    CLOUDY    34  23  64 S14       29.94F WCI  25
DECATUR        CLOUDY    32  23  69 SW15      30.00F WCI  22
PEORIA         CLOUDY    34  23  64 S10       29.91F WCI  26
LACON*         CLOUDY    35  23  62 SW12      29.89F WCI  27
LINCOLN*       CLOUDY    34  26  71 S7        29.96F WCI  28
SPRINGFIELD    CLOUDY    34  24  67 S15       29.97F WCI  24
TAYLORVILLE    NOT AVBL
$$

ILZ033-039-045-046-055>057-062-063-160800-
EAST-CENTRAL ILLINOIS

CITY           SKY/WX    TMP DP  RH WIND       PRES   REMARKS
CHAMPAIGN      CLOUDY    33  23  66 S15       29.99F WCI  23
DANVILLE*      CLOUDY    33  22  64 SW13      29.97S WCI  24
MATTOON        CLOUDY    31  24  75 S7        30.01F WCI  24
$$

ILZ079-100>102-160800-
SOUTHWEST ILLINOIS

CITY           SKY/WX    TMP DP  RH WIND       PRES   REMARKS
ALTON          CLOUDY    31  26  82 S10       30.03S WCI  22
BELLEVILLE     CLEAR     29  22  74 SW6       30.04F WCI  23
CAHOKIA*       CLEAR     32  23  69 S5        30.04F WCI  27
SPARTA*        PTCLDY    34  27  76 S8        30.08S WCI  27
$$

ILZ064>066-069>071-074>076-080>082-084>086-088>090-092>094-160800-
SOUTH-CENTRAL ILLINOIS

CITY           SKY/WX    TMP DP  RH WIND       PRES   REMARKS
CARBONDALE     CLEAR     28  26  92 SW7       30.10F WCI  21
CAIRO*         PTCLDY    35  29  78 S6        30.13F WCI  30
EFFINGHAM*     CLEAR     32  25  76 S6        30.06F WCI  26
MARION         PTCLDY    30  29  98 S6        30.11S WCI  24
MT. VERNON     PTCLDY    22  21  96 CALM      30.08F
CENTRALIA*     CLEAR     32  28  82 S10       30.05F WCI  24
SALEM*         CLEAR     33  26  73 S7        30.06F WCI  27
METROPOLIS*    PTCLDY    34  27  75 S5        30.14F WCI  30
$$

ILZ067-068-072-073-078-083-087-091-160800-
SOUTHEAST ILLINOIS

CITY           SKY/WX    TMP DP  RH WIND       PRES   REMARKS
LAWRENCEVILLE  PTCLDY    29  23  78 S10       30.08F WCI  20
FLORA*         CLEAR     29  24  84 S5        30.08S WCI  24
HARRISBURG*    CLEAR     32  28  84 SW6       30.11S WCI  26
ROBINSON*      CLEAR     28  24  83 S7        30.08S WCI  21
CARMI*         PTCLDY    29  26  87 S7        30.10S WCI  22
$$

ABBREVIATIONS USED IN REMARKS
   TC - TEMPERATURE IN CELSIUS
  WCI - WIND CHILL INDEX
   HX - HEAT INDEX
  VSB - VISIBILITY
$$





USA.gov is the U.S. government's official web portal to all federal, state and local government web resources and services.